Powrót do katalogu

STARLINK-34364

AktywnyŁącznośćVLEO
NORAD 64495·PAYLOAD·🇺🇸 United States

Wystrzelony Jun 23, 2025 z Cape Canaveral Space Force Station

Loading…

Następne Przeloty (najbliższe 24 godziny)

TLE

ŚwieżeSource: CelesTrak SupGP

Epoka: Sep 15, 2026, 02:27 UTC

1 64495C 25133Z   26258.10256944  .00040607  00000+0  11996-2 0  2588
2 64495  53.1595 310.6314 0001333  89.6689  56.3206 15.34374770    16

Śledź STARLINK-34364 w czasie rzeczywistym z AllMySat

Download on the App Store